Find Starlink 37145

NORAD ID: 68548 Int'l Des: 2026-070 Owner: SPXS Country: US Constellation: starlink operational
LEOCIRCULAR

Live Position

Loading 3D Globe...

About Starlink 37145

Description loading...

Upcoming Passes

Passes for default location (London). Set your location on the main map for personalized predictions.

Altitude History

Loading altitude history...

Two-Line Element Set

1 68548U 26070G 26139.25001157 -.02588129 00000-0 -73064-1 0 9996
2 68548 53.1575 34.7469 0000930 125.3312 76.7106 15.39828730 6033
Epoch: May 19, 2026 • Age: 7 hours

Current Status

Altitude 454.5 km
Velocity 7.64 km/s
Sub-Earth Point 36.59°N, 7.18°W
Launch Date Apr 2, 2026
Age 0.1 years
Type internet

Technical Details

Classification Payload
Mass 575.00 kg
Dry Mass 530.00 kg
Total Mass 575.00 kg
Length 0.30 m
Diameter 4.10 m
Span 29.00 m
Shape Box + pan
Manufacturer SPXS
Bus Type Starlink V2MO
Phase Status In Orbit
Owner/State SPXS/US

Most Searched